Home   Weather   Venice   Past weeks

Flag for Italy Past Weather in Venice, Italy — Yesterday and Last 2 Weeks

Now
39 °F

Fog.


Feels Like: 36 °F
Forecast: 42 / 51 °F
Wind: 5 mph from Northwest

Location: Venice / Tessera

Current Time: Dec 11, 2016 at 1:12:04 pm

Latest Report: Dec 11, 2016 at 12:20 pm


Visibility: 1 mi

Pressure: 30.15 "Hg

Humidity: 93%

Dew Point: 37 °F

Location of VeniceLocation

Past Weather in Venice — Graph

°F

Venice Temperature Yesterday

Maximum temperature yesterday: 36 °F (at 11:20 am)
Minimum temperature yesterday: 28 °F (at 4:20 am)
Average temperature yesterday: 32 °F

High & Low Weather Summary for the Past Weeks

 TemperatureHumidityPressure
High64 °F (Nov 28, 7:50 pm)100% (Nov 26, 8:50 pm)30.66 "Hg (Nov 26, 8:50 pm)
Low28 °F (Nov 30, 5:50 am)24% (Nov 28, 7:50 pm)29.86 "Hg (Nov 27, 2:20 pm)
Average41 °F78%30.28 "Hg
* Reported Nov 26 11:20 am — Dec 11 11:50 am, Venice, Weather by CustomWeather, © 2016

Note: Actual official high and low records may vary slightly from our data, if they occured in-between our weather recording intervals... More about our weather records

Advertising

Venice Weather History for the Previous 24 Hours

Scroll right to see more
 ConditionsComfort  
Time TempWeatherWind HumidityBarometerVisibility
11:50 am
Sun, Dec 11
37 °FFog.3 mph100%30.15 "Hg1 mi
11:20 am37 °FFog.3 mph93%30.15 "Hg1 mi
10:50 am36 °FFog.5 mph100%30.18 "Hg1 mi
10:20 am36 °FFog.2 mph93%30.18 "Hg1 mi
9:50 am34 °FFog.5 mph100%30.18 "Hg1 mi
9:20 am34 °FFog.5 mph100%30.18 "Hg1 mi
8:50 am34 °FFog.3 mph100%30.18 "Hg1 mi
8:20 am34 °FFog.3 mph93%30.18 "Hg1 mi
7:50 am32 °FIce fog.5 mph100%30.18 "Hg1 mi
7:20 am32 °FIce fog.5 mph100%30.21 "Hg1 mi
6:50 am32 °FIce fog.5 mph93%30.21 "Hg1 mi
6:20 am32 °FIce fog.6 mph93%30.21 "Hg1 mi
5:50 am32 °FIce fog.6 mph93%30.21 "Hg1 mi
5:20 am30 °FIce fog.6 mph100%30.21 "Hg1 mi
4:50 am30 °FIce fog.7 mph100%30.21 "Hg1 mi
4:20 am30 °FIce fog.5 mph100%30.24 "Hg1 mi
3:50 am30 °FIce fog.5 mph100%30.24 "Hg1 mi
2:50 am30 °FIce fog.5 mph100%30.24 "Hg0 mi
2:20 am30 °FIce fog.5 mph100%30.27 "Hg0 mi
1:50 am30 °FIce fog.5 mph100%30.27 "Hg0 mi
12:50 am30 °FIce fog.3 mph93%30.27 "Hg0 mi
12:20 am30 °FIce fog.3 mph100%30.30 "Hg0 mi
11:50 pm
Sat, Dec 10
30 °FIce fog.2 mph100%30.30 "Hg0 mi
11:20 pm30 °FIce fog.5 mph100%30.30 "Hg0 mi
10:50 pm30 °FPassing clouds.3 mph100%30.30 "Hg0 mi
10:20 pm30 °FIce fog.2 mph100%30.30 "Hg0 mi
9:50 pm32 °FIce fog.2 mph93%30.30 "Hg0 mi
9:20 pm32 °FIce fog.3 mph93%30.33 "Hg0 mi
8:50 pm32 °FFog.5 mph100%30.33 "Hg0 mi
8:20 pm32 °FFog.5 mph100%30.33 "Hg0 mi
7:50 pm34 °FFog.5 mph93%30.33 "Hg0 mi
7:20 pm34 °FFog.3 mph100%30.33 "Hg0 mi
6:50 pm34 °FFog.3 mph100%30.33 "Hg0 mi
6:20 pm34 °FFog.3 mph100%30.33 "Hg0 mi
5:50 pm34 °FFog.3 mph100%30.33 "Hg0 mi
5:20 pm34 °FFog.2 mph100%30.33 "Hg0 mi
4:50 pm34 °FFog.5 mph100%30.33 "Hg0 mi
4:20 pm34 °FFog.3 mph100%30.33 "Hg0 mi
3:50 pm34 °FFog.6 mph100%30.33 "Hg0 mi
3:20 pm36 °FFog.5 mph93%30.33 "Hg0 mi
2:50 pm36 °FFog.6 mph93%30.33 "Hg0 mi
2:20 pm36 °FFog.5 mph93%30.33 "Hg1 mi
1:50 pm36 °FLight fog.7 mph93%30.33 "Hg1 mi
1:20 pm36 °FFog.7 mph93%30.36 "Hg1 mi
Weather by CustomWeather, © 2016

See weather overviewHow to use our weather pages